Location: Unspecified
(0.0000°N, 0.0000°E)
Time: 17:56:43
(UTC+00:00)

STARLINK 1063 - Pass Details

Date: 22 January 2020
Orbit: 548 x 551 km, 53.0° (Epoch: 17 January)

Event Time Altitude Azimuth Distance (km) Brightness Sun altitude
Rises 03:56:08 0° 187° (S) 2,712 7.4 -31.6°
Reaches altitude 10° 03:59:01 10° 166° (SSE) 1,817 6.6 -30.9°
Maximum altitude 04:01:43 17° 125° (SE) 1,427 6.4 -30.3°
Drops below altitude 10° 04:04:25 10° 84° (E) 1,812 7.0 -29.7°
Sets 04:07:16 0° 63° (ENE) 2,701 7.7 -29.0°
